{"data":{"norad_id":54656,"epoch":"2026-05-24T23:35:42.087264Z","epoch_age_seconds":79586,"freshness":"FRESH","line1":"1 54656U 22166Q   26144.98312601 -.00000027  00000+0 -97922-4 0  9993","line2":"2 54656  87.9260 248.5867 0002223 111.6532 248.4839 13.21825356168467","mean_motion":13.21825356,"eccentricity":0.0002223,"inclination_deg":87.926,"raan_deg":248.5867,"arg_perigee_deg":111.6532,"mean_anomaly_deg":248.4839,"bstar":-9.7922e-5,"rev_number":16846,"period_min":108.94026154541,"perigee_km":1176.0761475719,"apogee_km":1179.4354975208,"semimajor_km":7555.8928225463,"source":"CELESTRAK","updated_at":"2026-05-25T13:38:22.631110Z"}}